Year,Month,Day,Hour,Minute,Value (Times are PST for temperature in C)
2020,06,02,00,00,11.20
2020,06,02,00,01,11.20
2020,06,02,00,02,11.20
2020,06,02,00,03,11.20
2020,06,02,00,04,11.10
2020,06,02,00,05,11.10
2020,06,02,00,06,11.10
2020,06,02,00,07,11.00
2020,06,02,00,08,11.00
2020,06,02,00,09,11.00
2020,06,02,00,10,11.00
2020,06,02,00,11,11.00
2020,06,02,00,12,10.90
2020,06,02,00,13,10.90
2020,06,02,00,14,10.90
2020,06,02,00,15,10.90
2020,06,02,00,16,10.90
2020,06,02,00,17,10.90
2020,06,02,00,18,10.90
2020,06,02,00,19,10.90
2020,06,02,00,20,10.80
2020,06,02,00,21,10.80
2020,06,02,00,22,10.80
2020,06,02,00,23,10.80
2020,06,02,00,24,10.80
2020,06,02,00,25,10.80
2020,06,02,00,26,10.80
2020,06,02,00,27,10.80
2020,06,02,00,28,10.80
2020,06,02,00,29,10.80
2020,06,02,00,30,10.80
2020,06,02,00,31,10.70
2020,06,02,00,32,10.70
2020,06,02,00,33,10.70
2020,06,02,00,34,10.70
2020,06,02,00,35,10.70
2020,06,02,00,36,10.70
2020,06,02,00,37,10.70
2020,06,02,00,38,10.70
2020,06,02,00,39,10.70
2020,06,02,00,40,10.70
2020,06,02,00,41,10.70
2020,06,02,00,42,10.70
2020,06,02,00,43,10.70
2020,06,02,00,44,10.60
2020,06,02,00,45,10.60
2020,06,02,00,46,10.60
2020,06,02,00,47,10.60
2020,06,02,00,48,10.60
2020,06,02,00,49,10.60
2020,06,02,00,50,10.60
2020,06,02,00,51,10.60
2020,06,02,00,52,10.50
2020,06,02,00,53,10.50
2020,06,02,00,54,10.40
2020,06,02,00,55,10.40
2020,06,02,00,56,10.40
2020,06,02,00,57,10.40
2020,06,02,00,58,10.30
2020,06,02,00,59,10.30
2020,06,02,01,00,10.30
2020,06,02,01,01,10.30
2020,06,02,01,02,10.30
2020,06,02,01,03,10.30
2020,06,02,01,04,10.30
2020,06,02,01,05,10.20
2020,06,02,01,06,10.20
2020,06,02,01,07,10.20
2020,06,02,01,08,10.20
2020,06,02,01,09,10.20
2020,06,02,01,10,10.20
2020,06,02,01,11,10.20
2020,06,02,01,12,10.20
2020,06,02,01,13,10.20
2020,06,02,01,14,10.20
2020,06,02,01,15,10.10
2020,06,02,01,16,10.20
2020,06,02,01,17,10.20
2020,06,02,01,18,10.20
2020,06,02,01,19,10.20
2020,06,02,01,20,10.20
2020,06,02,01,21,10.20
2020,06,02,01,22,10.20
2020,06,02,01,23,10.20
2020,06,02,01,24,10.20
2020,06,02,01,25,10.20
2020,06,02,01,26,10.20
2020,06,02,01,27,10.20
2020,06,02,01,28,10.10
2020,06,02,01,29,10.10
2020,06,02,01,30,10.10
2020,06,02,01,31,10.10
2020,06,02,01,32,10.10
2020,06,02,01,33,10.10
2020,06,02,01,34,10.10
2020,06,02,01,35,10.00
2020,06,02,01,36,10.00
2020,06,02,01,37,10.00
2020,06,02,01,38,10.00
2020,06,02,01,39,10.00
2020,06,02,01,40,10.00
2020,06,02,01,41,10.00
2020,06,02,01,42,9.90
2020,06,02,01,43,9.90
2020,06,02,01,44,9.90
2020,06,02,01,45,9.90
2020,06,02,01,46,10.00
2020,06,02,01,47,10.00
2020,06,02,01,48,10.00
2020,06,02,01,49,10.10
2020,06,02,01,50,10.10
2020,06,02,01,51,10.10
2020,06,02,01,52,10.10
2020,06,02,01,53,10.10
2020,06,02,01,54,10.10
2020,06,02,01,55,10.10
2020,06,02,01,56,10.00
2020,06,02,01,57,10.00
2020,06,02,01,58,10.00
2020,06,02,01,59,10.00
2020,06,02,02,00,9.90
2020,06,02,02,01,9.90
2020,06,02,02,02,9.90
2020,06,02,02,03,9.90
2020,06,02,02,04,9.90
2020,06,02,02,05,9.80
2020,06,02,02,06,9.80
2020,06,02,02,07,9.80
2020,06,02,02,08,9.80
2020,06,02,02,09,9.80
2020,06,02,02,10,9.80
2020,06,02,02,11,9.80
2020,06,02,02,12,9.70
2020,06,02,02,13,9.70
2020,06,02,02,14,9.70
2020,06,02,02,15,9.60
2020,06,02,02,16,9.60
2020,06,02,02,17,9.50
2020,06,02,02,18,9.50
2020,06,02,02,19,9.50
2020,06,02,02,20,9.40
2020,06,02,02,21,9.40
2020,06,02,02,22,9.40
2020,06,02,02,23,9.40
2020,06,02,02,24,9.40
2020,06,02,02,25,9.40
2020,06,02,02,26,9.40
2020,06,02,02,27,9.30
2020,06,02,02,28,9.30
2020,06,02,02,29,9.30
2020,06,02,02,30,9.30
2020,06,02,02,31,9.30
2020,06,02,02,32,9.30
2020,06,02,02,33,9.30
2020,06,02,02,34,9.30
2020,06,02,02,35,9.30
2020,06,02,02,36,9.30
2020,06,02,02,37,9.30
2020,06,02,02,38,9.20
2020,06,02,02,39,9.20
2020,06,02,02,40,9.20
2020,06,02,02,41,9.10
2020,06,02,02,42,9.10
2020,06,02,02,43,9.10
2020,06,02,02,44,9.00
2020,06,02,02,45,9.00
2020,06,02,02,46,9.00
2020,06,02,02,47,9.00
2020,06,02,02,48,8.90
2020,06,02,02,49,8.90
2020,06,02,02,50,8.90
2020,06,02,02,51,8.90
2020,06,02,02,52,8.90
2020,06,02,02,53,8.90
2020,06,02,02,54,8.80
2020,06,02,02,55,8.80
2020,06,02,02,56,8.80
2020,06,02,02,57,8.80
2020,06,02,02,58,8.80
2020,06,02,02,59,8.80
2020,06,02,03,00,8.90
2020,06,02,03,01,8.90
2020,06,02,03,02,8.90
2020,06,02,03,03,8.80
2020,06,02,03,04,8.80
2020,06,02,03,05,8.80
2020,06,02,03,06,8.80
2020,06,02,03,07,8.80
2020,06,02,03,08,8.70
2020,06,02,03,09,8.70
2020,06,02,03,10,8.70
2020,06,02,03,11,8.70
2020,06,02,03,12,8.70
2020,06,02,03,13,8.70
2020,06,02,03,14,8.70
2020,06,02,03,15,8.70
2020,06,02,03,16,8.70
2020,06,02,03,17,8.70
2020,06,02,03,18,8.70
2020,06,02,03,19,8.70
2020,06,02,03,20,8.70
2020,06,02,03,21,8.60
2020,06,02,03,22,8.60
2020,06,02,03,23,8.60
2020,06,02,03,24,8.60
2020,06,02,03,25,8.60
2020,06,02,03,26,8.60
2020,06,02,03,27,8.60
2020,06,02,03,28,8.60
2020,06,02,03,29,8.60
2020,06,02,03,30,8.60
2020,06,02,03,31,8.60
2020,06,02,03,32,8.70
2020,06,02,03,33,8.70
2020,06,02,03,34,8.70
2020,06,02,03,35,8.70
2020,06,02,03,36,8.70
2020,06,02,03,37,8.70
2020,06,02,03,38,8.70
2020,06,02,03,39,8.70
2020,06,02,03,40,8.70
2020,06,02,03,41,8.70
2020,06,02,03,42,8.70
2020,06,02,03,43,8.60
2020,06,02,03,44,8.60
2020,06,02,03,45,8.60
2020,06,02,03,46,8.60
2020,06,02,03,47,8.60
2020,06,02,03,48,8.60
2020,06,02,03,49,8.60
2020,06,02,03,50,8.60
2020,06,02,03,51,8.60
2020,06,02,03,52,8.60
2020,06,02,03,53,8.60
2020,06,02,03,54,8.70
2020,06,02,03,55,8.70
2020,06,02,03,56,8.70
2020,06,02,03,57,8.70
2020,06,02,03,58,8.70
2020,06,02,03,59,8.70
2020,06,02,04,00,8.80
2020,06,02,04,01,8.80
2020,06,02,04,02,8.80
2020,06,02,04,03,8.80
2020,06,02,04,04,8.80
2020,06,02,04,08,8.80
2020,06,02,04,09,8.80
2020,06,02,04,10,8.80
2020,06,02,04,11,8.80
2020,06,02,04,12,8.90
2020,06,02,04,13,8.90
2020,06,02,04,14,8.90
2020,06,02,04,15,9.00
2020,06,02,04,16,9.00
2020,06,02,04,17,9.00
2020,06,02,04,18,9.10
2020,06,02,04,19,9.10
2020,06,02,04,20,9.10
2020,06,02,04,21,9.10
2020,06,02,04,22,9.10
2020,06,02,04,23,9.20
2020,06,02,04,24,9.20
2020,06,02,04,25,9.20
2020,06,02,04,26,9.20
2020,06,02,04,27,9.20
2020,06,02,04,28,9.20
2020,06,02,04,29,9.20
2020,06,02,04,30,9.30
2020,06,02,04,31,9.30
2020,06,02,04,32,9.30
2020,06,02,04,33,9.30
2020,06,02,04,34,9.30
2020,06,02,04,35,9.30
2020,06,02,04,36,9.30
2020,06,02,04,37,9.30
2020,06,02,04,38,9.30
2020,06,02,04,39,9.30
2020,06,02,04,40,9.30
2020,06,02,04,41,9.30
2020,06,02,04,42,9.30
2020,06,02,04,43,9.30
2020,06,02,04,44,9.30
2020,06,02,04,45,9.30
2020,06,02,04,46,9.30
2020,06,02,04,47,9.30
2020,06,02,04,48,9.30
2020,06,02,04,49,9.30
2020,06,02,04,50,9.30
2020,06,02,04,51,9.40
2020,06,02,04,52,9.40
2020,06,02,04,53,9.40
2020,06,02,04,54,9.40
2020,06,02,04,55,9.40
2020,06,02,04,56,9.40
2020,06,02,04,57,9.40
2020,06,02,04,58,9.40
2020,06,02,04,59,9.40
2020,06,02,05,00,9.40
2020,06,02,05,01,9.40
2020,06,02,05,02,9.40
2020,06,02,05,03,9.40
2020,06,02,05,04,9.40
2020,06,02,05,05,9.40
2020,06,02,05,06,9.40
2020,06,02,05,07,9.40
2020,06,02,05,08,9.40
2020,06,02,05,09,9.40
2020,06,02,05,10,9.40
2020,06,02,05,11,9.40
2020,06,02,05,12,9.40
2020,06,02,05,13,9.40
2020,06,02,05,14,9.40
2020,06,02,05,15,9.40
2020,06,02,05,16,9.40
2020,06,02,05,17,9.40
2020,06,02,05,18,9.40
2020,06,02,05,19,9.40
2020,06,02,05,20,9.40
2020,06,02,05,21,9.40
2020,06,02,05,22,9.40
2020,06,02,05,23,9.40
2020,06,02,05,24,9.40
2020,06,02,05,25,9.40
2020,06,02,05,26,9.40
2020,06,02,05,27,9.40
2020,06,02,05,28,9.40
2020,06,02,05,29,9.30
2020,06,02,05,30,9.30
2020,06,02,05,31,9.30
2020,06,02,05,32,9.30
2020,06,02,05,33,9.30
2020,06,02,05,34,9.30
2020,06,02,05,35,9.30
2020,06,02,05,36,9.30
2020,06,02,05,37,9.30
2020,06,02,05,38,9.30
2020,06,02,05,39,9.30
2020,06,02,05,40,9.30
2020,06,02,05,41,9.30
2020,06,02,05,42,9.30
2020,06,02,05,43,9.30
2020,06,02,05,44,9.30
2020,06,02,05,45,9.30
2020,06,02,05,46,9.30
2020,06,02,05,47,9.30
2020,06,02,05,48,9.30
2020,06,02,05,49,9.30
2020,06,02,05,50,9.30
2020,06,02,05,51,9.30
2020,06,02,05,52,9.30
2020,06,02,05,53,9.30
2020,06,02,05,54,9.30
2020,06,02,05,55,9.30
2020,06,02,05,56,9.30
2020,06,02,05,57,9.30
2020,06,02,05,58,9.20
2020,06,02,05,59,9.20
2020,06,02,06,00,9.20
2020,06,02,06,01,9.20
2020,06,02,06,02,9.20
2020,06,02,06,03,9.20
2020,06,02,06,04,9.20
2020,06,02,06,05,9.20
2020,06,02,06,06,9.20
2020,06,02,06,07,9.20
2020,06,02,06,08,9.20
2020,06,02,06,09,9.20
2020,06,02,06,10,9.20
2020,06,02,06,11,9.20
2020,06,02,06,12,9.20
2020,06,02,06,13,9.10
2020,06,02,06,14,9.10
2020,06,02,06,15,9.10
2020,06,02,06,16,9.20
2020,06,02,06,17,9.20
2020,06,02,06,18,9.20
2020,06,02,06,19,9.20
2020,06,02,06,20,9.20
2020,06,02,06,21,9.20
2020,06,02,06,22,9.20
2020,06,02,06,23,9.20
2020,06,02,06,24,9.20
2020,06,02,06,25,9.20
2020,06,02,06,26,9.30
2020,06,02,06,27,9.30
2020,06,02,06,28,9.30
2020,06,02,06,29,9.30
2020,06,02,06,30,9.30
2020,06,02,06,31,9.40
2020,06,02,06,32,9.40
2020,06,02,06,33,9.40
2020,06,02,06,34,9.50
2020,06,02,06,35,9.50
2020,06,02,06,36,9.60
2020,06,02,06,37,9.60
2020,06,02,06,38,9.60
2020,06,02,06,39,9.60
2020,06,02,06,40,9.60
2020,06,02,06,41,9.70
2020,06,02,06,42,9.70
2020,06,02,06,43,9.70
2020,06,02,06,44,9.70
2020,06,02,06,45,9.70
2020,06,02,06,46,9.70
2020,06,02,06,47,9.70
2020,06,02,06,48,9.70
2020,06,02,06,49,9.70
2020,06,02,06,50,9.70
2020,06,02,06,51,9.70
2020,06,02,06,52,9.70
2020,06,02,06,53,9.70
2020,06,02,06,54,9.70
2020,06,02,06,55,9.70
2020,06,02,06,56,9.70
2020,06,02,06,57,9.70
2020,06,02,06,58,9.70
2020,06,02,06,59,9.80
2020,06,02,07,00,9.80
2020,06,02,07,01,9.80
2020,06,02,07,02,9.80
2020,06,02,07,03,9.80
2020,06,02,07,04,9.80
2020,06,02,07,05,9.80
2020,06,02,07,06,9.80
2020,06,02,07,07,9.80
2020,06,02,07,08,9.80
2020,06,02,07,09,9.80
2020,06,02,07,10,9.80
2020,06,02,07,11,9.90
2020,06,02,07,12,9.90
2020,06,02,07,13,9.90
2020,06,02,07,14,9.90
2020,06,02,07,15,9.90
2020,06,02,07,16,9.90
2020,06,02,07,17,9.90
2020,06,02,07,18,9.90
2020,06,02,07,19,10.00
2020,06,02,07,20,10.00
2020,06,02,07,21,10.00
2020,06,02,07,22,10.00
2020,06,02,07,23,10.10
2020,06,02,07,24,10.10
2020,06,02,07,25,10.10
2020,06,02,07,26,10.10
2020,06,02,07,27,10.20
2020,06,02,07,28,10.20
2020,06,02,07,29,10.20
2020,06,02,07,30,10.20
2020,06,02,07,31,10.30
2020,06,02,07,32,10.30
2020,06,02,07,33,10.30
2020,06,02,07,34,10.30
2020,06,02,07,35,10.30
2020,06,02,07,36,10.40
2020,06,02,07,37,10.40
2020,06,02,07,38,10.40
2020,06,02,07,39,10.50
2020,06,02,07,40,10.50
2020,06,02,07,41,10.50
2020,06,02,07,42,10.60
2020,06,02,07,43,10.60
2020,06,02,07,44,10.60
2020,06,02,07,45,10.60
2020,06,02,07,46,10.60
2020,06,02,07,47,10.70
2020,06,02,07,48,10.70
2020,06,02,07,49,10.70
2020,06,02,07,50,10.70
2020,06,02,07,51,10.70
2020,06,02,07,52,10.80
2020,06,02,07,53,10.80
2020,06,02,07,54,10.80
2020,06,02,07,55,10.80
2020,06,02,07,56,10.80
2020,06,02,07,57,10.90
2020,06,02,07,58,10.90
2020,06,02,07,59,10.90
2020,06,02,08,00,11.00
2020,06,02,08,01,11.00
2020,06,02,08,02,11.00
2020,06,02,08,03,11.10
2020,06,02,08,04,11.10
2020,06,02,08,05,11.10
2020,06,02,08,06,11.10
2020,06,02,08,07,11.10
2020,06,02,08,08,11.20
2020,06,02,08,09,11.20
2020,06,02,08,10,11.20
2020,06,02,08,11,11.20
2020,06,02,08,12,11.20
2020,06,02,08,13,11.20
2020,06,02,08,14,11.30
2020,06,02,08,15,11.30
2020,06,02,08,16,11.30
2020,06,02,08,17,11.30
2020,06,02,08,18,11.30
2020,06,02,08,19,11.30
2020,06,02,08,20,11.40
2020,06,02,08,21,11.40
2020,06,02,08,22,11.40
2020,06,02,08,23,11.40
2020,06,02,08,24,11.40
2020,06,02,08,25,11.40
2020,06,02,08,26,11.50
2020,06,02,08,27,11.50
2020,06,02,08,28,11.60
2020,06,02,08,29,11.70
2020,06,02,08,30,11.70
2020,06,02,08,31,11.80
2020,06,02,08,32,11.90
2020,06,02,08,33,11.90
2020,06,02,08,34,11.90
2020,06,02,08,35,11.90
2020,06,02,08,36,11.90
2020,06,02,08,37,12.00
2020,06,02,08,38,12.00
2020,06,02,08,39,12.00
2020,06,02,08,40,12.10
2020,06,02,08,41,12.10
2020,06,02,08,42,12.10
2020,06,02,08,43,12.10
2020,06,02,08,44,12.20
2020,06,02,08,45,12.20
2020,06,02,08,46,12.20
2020,06,02,08,47,12.20
2020,06,02,08,48,12.20
2020,06,02,08,49,12.20
2020,06,02,08,50,12.20
2020,06,02,08,51,12.20
2020,06,02,08,52,12.20
2020,06,02,08,53,12.20
2020,06,02,08,54,12.30
2020,06,02,08,55,12.30
2020,06,02,08,56,12.30
2020,06,02,08,57,12.30
2020,06,02,08,58,12.30
2020,06,02,08,59,12.30
2020,06,02,09,00,12.30
2020,06,02,09,01,12.30
2020,06,02,09,02,12.30
2020,06,02,09,03,12.40
2020,06,02,09,04,12.40
2020,06,02,09,05,12.40
2020,06,02,09,06,12.50
2020,06,02,09,07,12.50
2020,06,02,09,08,12.60
2020,06,02,09,09,12.60
2020,06,02,09,10,12.60
2020,06,02,09,11,12.60
2020,06,02,09,12,12.60
2020,06,02,09,13,12.60
2020,06,02,09,14,12.70
2020,06,02,09,15,12.70
2020,06,02,09,16,12.80
2020,06,02,09,17,12.80
2020,06,02,09,18,12.80
2020,06,02,09,19,12.80
2020,06,02,09,20,12.80
2020,06,02,09,21,12.80
2020,06,02,09,22,12.80
2020,06,02,09,23,12.80
2020,06,02,09,24,12.80
2020,06,02,09,25,12.80
2020,06,02,09,26,12.90
2020,06,02,09,27,12.90
2020,06,02,09,28,12.90
2020,06,02,09,29,12.90
2020,06,02,09,30,12.90
2020,06,02,09,31,13.00
2020,06,02,09,32,13.00
2020,06,02,09,33,13.00
2020,06,02,09,34,13.10
2020,06,02,09,35,13.10
2020,06,02,09,36,13.10
2020,06,02,09,37,13.10
2020,06,02,09,38,13.10
2020,06,02,09,39,13.10
2020,06,02,09,40,13.10
2020,06,02,09,41,13.10
2020,06,02,09,42,13.10
2020,06,02,09,43,13.10
2020,06,02,09,44,13.10
2020,06,02,09,45,13.10
2020,06,02,09,46,13.00
2020,06,02,09,47,13.00
2020,06,02,09,48,13.00
2020,06,02,09,49,13.00
2020,06,02,09,50,13.00
2020,06,02,09,51,13.00
2020,06,02,09,52,13.00
2020,06,02,09,53,13.00
2020,06,02,09,54,13.00
2020,06,02,09,55,13.00
2020,06,02,09,56,13.00
2020,06,02,09,57,13.00
2020,06,02,09,58,13.00
2020,06,02,09,59,13.00
2020,06,02,10,00,13.00
2020,06,02,10,01,13.00
2020,06,02,10,02,13.00
2020,06,02,10,03,13.00
2020,06,02,10,04,13.00
2020,06,02,10,05,13.00
2020,06,02,10,06,13.00
2020,06,02,10,07,13.00
2020,06,02,10,08,13.00
2020,06,02,10,09,13.00
2020,06,02,10,10,13.00
2020,06,02,10,11,13.00
2020,06,02,10,12,12.90
2020,06,02,10,13,12.90
2020,06,02,10,14,12.80
2020,06,02,10,15,12.80
2020,06,02,10,16,12.70
2020,06,02,10,17,12.70
2020,06,02,10,18,12.60
2020,06,02,10,19,12.50
2020,06,02,10,20,12.50
2020,06,02,10,21,12.50
2020,06,02,10,22,12.50
2020,06,02,10,23,12.40
2020,06,02,10,24,12.40
2020,06,02,10,25,12.40
2020,06,02,10,26,12.40
2020,06,02,10,27,12.40
2020,06,02,10,28,12.30
2020,06,02,10,29,12.30
2020,06,02,10,30,12.30
2020,06,02,10,31,12.30
2020,06,02,10,32,12.30
2020,06,02,10,33,12.30
2020,06,02,10,34,12.30
2020,06,02,10,35,12.30
2020,06,02,10,36,12.30
2020,06,02,10,37,12.30
2020,06,02,10,38,12.30
2020,06,02,10,39,12.30
2020,06,02,10,40,12.30
2020,06,02,10,41,12.30
2020,06,02,10,42,12.30
2020,06,02,10,43,12.30
2020,06,02,10,44,12.30
2020,06,02,10,45,12.30
2020,06,02,10,46,12.30
2020,06,02,10,47,12.30
2020,06,02,10,48,12.30
2020,06,02,10,49,12.30
2020,06,02,10,50,12.30
2020,06,02,10,51,12.30
2020,06,02,10,52,12.30
2020,06,02,10,53,12.30
2020,06,02,10,54,12.30
2020,06,02,10,55,12.30
2020,06,02,10,56,12.30
2020,06,02,10,57,12.30
2020,06,02,10,58,12.30
2020,06,02,10,59,12.30
2020,06,02,11,00,12.40
2020,06,02,11,01,12.40
2020,06,02,11,02,12.40
2020,06,02,11,03,12.40
2020,06,02,11,04,12.40
2020,06,02,11,05,12.50
2020,06,02,11,06,12.50
2020,06,02,11,07,12.50
2020,06,02,11,08,12.60
2020,06,02,11,09,12.60
2020,06,02,11,10,12.50
2020,06,02,11,11,12.50
2020,06,02,11,12,12.50
2020,06,02,11,13,12.50
2020,06,02,11,14,12.40
2020,06,02,11,15,12.40
2020,06,02,11,16,12.40
2020,06,02,11,17,12.40
2020,06,02,11,18,12.40
2020,06,02,11,19,12.40
2020,06,02,11,20,12.40
2020,06,02,11,21,12.40
2020,06,02,11,22,12.40
2020,06,02,11,23,12.40
2020,06,02,11,24,12.40
2020,06,02,11,25,12.40
2020,06,02,11,26,12.40
2020,06,02,11,27,12.40
2020,06,02,11,28,12.50
2020,06,02,11,29,12.60
2020,06,02,11,30,12.60
2020,06,02,11,31,12.60
2020,06,02,11,32,12.60
2020,06,02,11,33,12.60
2020,06,02,11,34,12.60
2020,06,02,11,35,12.70
2020,06,02,11,36,12.70
2020,06,02,11,37,12.70
2020,06,02,11,38,12.70
2020,06,02,11,39,12.70
2020,06,02,11,40,12.70
2020,06,02,11,41,12.80
2020,06,02,11,42,12.80
2020,06,02,11,43,12.80
2020,06,02,11,44,12.80
2020,06,02,11,45,12.80
2020,06,02,11,46,12.80
2020,06,02,11,47,12.80
2020,06,02,11,48,12.80
2020,06,02,11,49,12.80
2020,06,02,11,50,12.80
2020,06,02,11,51,12.80
2020,06,02,11,52,12.80
2020,06,02,11,53,12.80
2020,06,02,11,54,12.80
2020,06,02,11,55,12.80
2020,06,02,11,56,12.80
2020,06,02,11,57,12.80
2020,06,02,11,58,12.90
2020,06,02,11,59,12.90
2020,06,02,12,00,12.90
2020,06,02,12,01,12.90
2020,06,02,12,02,12.90
2020,06,02,12,03,12.90
2020,06,02,12,04,12.90
2020,06,02,12,05,12.90
2020,06,02,12,06,12.90
2020,06,02,12,07,12.90
2020,06,02,12,08,12.90
2020,06,02,12,09,12.90
2020,06,02,12,10,12.80
2020,06,02,12,11,12.90
2020,06,02,12,12,12.90
2020,06,02,12,13,12.90
2020,06,02,12,14,12.90
2020,06,02,12,15,12.90
2020,06,02,12,16,12.90
2020,06,02,12,17,12.90
2020,06,02,12,18,12.90
2020,06,02,12,19,12.90
2020,06,02,12,20,12.90
2020,06,02,12,21,12.90
2020,06,02,12,22,12.90
2020,06,02,12,23,12.90
2020,06,02,12,24,12.90
2020,06,02,12,25,12.80
2020,06,02,12,26,12.80
2020,06,02,12,27,12.80
2020,06,02,12,28,12.80
2020,06,02,12,29,12.70
2020,06,02,12,30,12.70
2020,06,02,12,31,12.70
2020,06,02,12,32,12.70
2020,06,02,12,33,12.70
2020,06,02,12,34,12.60
2020,06,02,12,35,12.60
2020,06,02,12,36,12.60
2020,06,02,12,37,12.60
2020,06,02,12,38,12.60
2020,06,02,12,39,12.60
2020,06,02,12,40,12.60
2020,06,02,12,41,12.60
2020,06,02,12,42,12.60
2020,06,02,12,43,12.50
2020,06,02,12,44,12.50
2020,06,02,12,45,12.50
2020,06,02,12,46,12.50
2020,06,02,12,47,12.40
2020,06,02,12,48,12.40
2020,06,02,12,49,12.40
2020,06,02,12,50,12.50
2020,06,02,12,51,12.50
2020,06,02,12,52,12.60
2020,06,02,12,53,12.60
2020,06,02,12,54,12.60
2020,06,02,12,55,12.60
2020,06,02,12,56,12.60
2020,06,02,12,57,12.60
2020,06,02,12,58,12.60
2020,06,02,12,59,12.70
2020,06,02,13,00,12.70
2020,06,02,13,01,12.70
2020,06,02,13,02,12.70
2020,06,02,13,03,12.70
2020,06,02,13,04,12.70
2020,06,02,13,05,12.60
2020,06,02,13,06,12.70
2020,06,02,13,07,12.70
2020,06,02,13,08,12.70
2020,06,02,13,09,12.80
2020,06,02,13,10,12.80
2020,06,02,13,11,12.90
2020,06,02,13,12,12.90
2020,06,02,13,13,12.90
2020,06,02,13,14,13.00
2020,06,02,13,15,13.00
2020,06,02,13,16,13.00
2020,06,02,13,17,13.00
2020,06,02,13,18,13.00
2020,06,02,13,19,12.90
2020,06,02,13,20,12.90
2020,06,02,13,21,12.90
2020,06,02,13,22,12.90
2020,06,02,13,23,12.90
2020,06,02,13,24,12.90
2020,06,02,13,25,12.90
2020,06,02,13,26,12.90
2020,06,02,13,27,12.90
2020,06,02,13,28,12.90
2020,06,02,13,29,12.90
2020,06,02,13,30,12.90
2020,06,02,13,31,12.90
2020,06,02,13,32,12.90
2020,06,02,13,33,12.90
2020,06,02,13,34,12.90
2020,06,02,13,35,12.90
2020,06,02,13,36,12.90
2020,06,02,13,37,12.90
2020,06,02,13,38,12.90
2020,06,02,13,39,12.90
2020,06,02,13,40,12.90
2020,06,02,13,41,12.90
2020,06,02,13,42,12.90
2020,06,02,13,43,12.90
2020,06,02,13,44,12.90
2020,06,02,13,45,12.90
2020,06,02,13,46,12.90
2020,06,02,13,47,12.90
2020,06,02,13,48,12.90
2020,06,02,13,49,12.90
2020,06,02,13,50,12.90
2020,06,02,13,51,12.90
2020,06,02,13,52,12.90
2020,06,02,13,53,12.80
2020,06,02,13,54,12.80
2020,06,02,13,55,12.70
2020,06,02,13,56,12.50
2020,06,02,13,57,12.40
2020,06,02,13,58,12.30
2020,06,02,13,59,12.20
2020,06,02,14,00,12.10
2020,06,02,14,01,12.00
2020,06,02,14,02,11.90
2020,06,02,14,03,11.80
2020,06,02,14,04,11.80
2020,06,02,14,05,11.70
2020,06,02,14,06,11.70
2020,06,02,14,07,11.60
2020,06,02,14,08,11.60
2020,06,02,14,09,11.50
2020,06,02,14,10,11.40
2020,06,02,14,11,11.40
2020,06,02,14,12,11.30
2020,06,02,14,13,11.30
2020,06,02,14,14,11.30
2020,06,02,14,15,11.20
2020,06,02,14,16,11.20
2020,06,02,14,17,11.20
2020,06,02,14,18,11.10
2020,06,02,14,19,11.10
2020,06,02,14,20,11.10
2020,06,02,14,21,11.00
2020,06,02,14,22,10.90
2020,06,02,14,23,10.90
2020,06,02,14,24,10.90
2020,06,02,14,25,10.90
2020,06,02,14,26,10.90
2020,06,02,14,27,10.80
2020,06,02,14,28,10.80
2020,06,02,14,29,10.80
2020,06,02,14,30,10.80
2020,06,02,14,31,10.80
2020,06,02,14,32,10.80
2020,06,02,14,33,10.80
2020,06,02,14,34,10.80
2020,06,02,14,35,10.80
2020,06,02,14,36,10.80
2020,06,02,14,37,10.80
2020,06,02,14,38,10.80
2020,06,02,14,39,10.70
2020,06,02,14,40,10.70
2020,06,02,14,41,10.70
2020,06,02,14,42,10.70
2020,06,02,14,43,10.70
2020,06,02,14,44,10.70
2020,06,02,14,45,10.70
2020,06,02,14,46,10.70
2020,06,02,14,47,10.70
2020,06,02,14,48,10.70
2020,06,02,14,49,10.70
2020,06,02,14,50,10.70
2020,06,02,14,51,10.70
2020,06,02,14,52,10.70
2020,06,02,14,53,10.70
2020,06,02,14,54,10.70
2020,06,02,14,55,10.70
2020,06,02,14,56,10.70
2020,06,02,14,57,10.80
2020,06,02,14,58,10.80
2020,06,02,14,59,10.80
2020,06,02,15,00,10.80
2020,06,02,15,01,10.80
2020,06,02,15,02,10.80
2020,06,02,15,03,10.80
2020,06,02,15,04,10.80
2020,06,02,15,05,10.80
2020,06,02,15,06,10.80
2020,06,02,15,07,10.80
2020,06,02,15,08,10.80
2020,06,02,15,09,10.80
2020,06,02,15,10,10.80
2020,06,02,15,11,10.80
2020,06,02,15,12,10.80
2020,06,02,15,13,10.80
2020,06,02,15,14,10.80
2020,06,02,15,15,10.80
2020,06,02,15,16,10.80
2020,06,02,15,17,10.70
2020,06,02,15,18,10.70
2020,06,02,15,19,10.70
2020,06,02,15,20,10.80
2020,06,02,15,21,10.80
2020,06,02,15,22,10.80
2020,06,02,15,23,10.80
2020,06,02,15,24,10.90
2020,06,02,15,25,10.90
2020,06,02,15,26,10.90
2020,06,02,15,27,11.00
2020,06,02,15,28,11.00
2020,06,02,15,29,11.10
2020,06,02,15,30,11.10
2020,06,02,15,31,11.20
2020,06,02,15,32,11.30
2020,06,02,15,33,11.30
2020,06,02,15,34,11.40
2020,06,02,15,35,11.40
2020,06,02,15,36,11.40
2020,06,02,15,37,11.40
2020,06,02,15,38,11.40
2020,06,02,15,39,11.40
2020,06,02,15,40,11.40
2020,06,02,15,41,11.40
2020,06,02,15,42,11.40
2020,06,02,15,43,11.50
2020,06,02,15,44,11.50
2020,06,02,15,45,11.60
2020,06,02,15,46,11.60
2020,06,02,15,47,11.60
2020,06,02,15,48,11.60
2020,06,02,15,49,11.60
2020,06,02,15,50,11.60
2020,06,02,15,51,11.50
2020,06,02,15,52,11.50
2020,06,02,15,53,11.50
2020,06,02,15,54,11.50
2020,06,02,15,55,11.50
2020,06,02,15,56,11.50
2020,06,02,15,57,11.50
2020,06,02,15,58,11.50
2020,06,02,15,59,11.60
2020,06,02,16,00,11.60
2020,06,02,16,01,11.60
2020,06,02,16,02,11.60
2020,06,02,16,03,11.60
2020,06,02,16,04,11.60
2020,06,02,16,05,11.60
2020,06,02,16,06,11.60
2020,06,02,16,07,11.70
2020,06,02,16,08,11.80
2020,06,02,16,09,11.80
2020,06,02,16,10,11.90
2020,06,02,16,11,11.90
2020,06,02,16,12,11.90
2020,06,02,16,13,12.00
2020,06,02,16,14,12.00
2020,06,02,16,15,12.00
2020,06,02,16,16,12.10
2020,06,02,16,17,12.10
2020,06,02,16,18,12.20
2020,06,02,16,19,12.20
2020,06,02,16,20,12.20
2020,06,02,16,21,12.30
2020,06,02,16,22,12.30
2020,06,02,16,23,12.30
2020,06,02,16,24,12.30
2020,06,02,16,25,12.40
2020,06,02,16,26,12.40
2020,06,02,16,27,12.40
2020,06,02,16,28,12.50
2020,06,02,16,29,12.50
2020,06,02,16,30,12.50
2020,06,02,16,31,12.60
2020,06,02,16,32,12.60
2020,06,02,16,33,12.60
2020,06,02,16,34,12.70
2020,06,02,16,35,12.70
2020,06,02,16,36,12.70
2020,06,02,16,37,12.70
2020,06,02,16,38,12.80
2020,06,02,16,39,12.80
2020,06,02,16,40,12.90
2020,06,02,16,41,12.90
2020,06,02,16,42,13.00
2020,06,02,16,43,13.00
2020,06,02,16,44,13.10
2020,06,02,16,45,13.10
2020,06,02,16,46,13.20
2020,06,02,16,47,13.20
2020,06,02,16,48,13.20
2020,06,02,16,49,13.20
2020,06,02,16,50,13.30
2020,06,02,16,51,13.30
2020,06,02,16,52,13.30
2020,06,02,16,53,13.30
2020,06,02,16,54,13.30
2020,06,02,16,55,13.30
2020,06,02,16,56,13.30
2020,06,02,16,57,13.30
2020,06,02,16,58,13.30
2020,06,02,16,59,13.30
2020,06,02,17,00,13.40
2020,06,02,17,01,13.40
2020,06,02,17,02,13.40
2020,06,02,17,03,13.40
2020,06,02,17,04,13.40
2020,06,02,17,05,13.40
2020,06,02,17,06,13.40
2020,06,02,17,07,13.40
2020,06,02,17,08,13.40
2020,06,02,17,09,13.30
2020,06,02,17,10,13.30
2020,06,02,17,11,13.30
2020,06,02,17,12,13.30
2020,06,02,17,13,13.30
2020,06,02,17,14,13.30
2020,06,02,17,15,13.30
2020,06,02,17,16,13.30
2020,06,02,17,17,13.30
2020,06,02,17,18,13.30
2020,06,02,17,19,13.30
2020,06,02,17,20,13.30
2020,06,02,17,21,13.30
2020,06,02,17,22,13.30
2020,06,02,17,23,13.30
2020,06,02,17,24,13.30
2020,06,02,17,25,13.20
2020,06,02,17,26,13.20
2020,06,02,17,27,13.20
2020,06,02,17,28,13.20
2020,06,02,17,29,13.20
2020,06,02,17,30,13.20
2020,06,02,17,31,13.20
2020,06,02,17,32,13.20
2020,06,02,17,33,13.20
2020,06,02,17,34,13.10
2020,06,02,17,35,13.10
2020,06,02,17,36,13.10